Tracking 28531 objects as of 2-Mar-2024
HD Live streaming from Space Station
objects crossing your sky now

AETHER-1

Track AETHER-1 now!
10-day predictions


NORAD ID: 58281
Int'l Code: 2023-174AB
Perigee: 515.6 km
Apogee: 528.0 km
Inclination: 97.5 °
Period: 94.9 minutes
Semi major axis: 6892 km
RCS: Unknown
Launch date: November 11, 2023
Source: (CAN)
Launch site: AIR FORCE WESTERN TEST RANGE (AFWTR)
Your satellite tracking list
Your tracking list is empty




NASA's NSSDC Master Catalog

Two Line Element Set (TLE):
1 58281U 23174AB  24061.75513105  .00012568  00000-0  63675-3 0  9993
2 58281  97.4672 137.9408 0009017 243.3963 116.6347 15.17079393 17416
Source of the keplerian elements: AFSPC